| time (UTC) | temp F | wind direction | speed knots | gust knots | rain 1hr in | rain 24hr in | rain mn in | humidity % | barometer mb |
| 20260902190030 | 78 | 188 | 3.5 | 5.2 | 0.00 | 0.32 | 0.32 | 85 | 1017.9 |
| 20260902185528 | 77 | 136 | 0.9 | 6.1 | 0.00 | 0.32 | 0.32 | 87 | 1018.0 |
| 20260902185047 | 76 | 165 | 1.7 | 6.1 | 0.00 | 0.32 | 0.32 | 88 | 1018.1 |
| 20260902184524 | 76 | 160 | 3.5 | 6.1 | 0.00 | 0.32 | 0.32 | 91 | 1018.1 |
| 20260902184043 | 75 | 184 | 2.6 | 4.3 | 0.00 | 0.32 | 0.32 | 89 | 1018.1 |
| 20260902183538 | 75 | 220 | 0.9 | 3.5 | 0.00 | 0.32 | 0.32 | 90 | 1018.2 |
| 20260902183103 | 75 | 156 | 0.9 | 3.5 | 0.00 | 0.32 | 0.32 | 93 | 1018.3 |
| 20260902182539 | 75 | 186 | 0.9 | 2.6 | 0.00 | 0.32 | 0.32 | 93 | 1018.4 |
| 20260902182043 | 75 | 103 | 0.9 | 2.6 | 0.00 | 0.32 | 0.32 | 94 | 1018.3 |
| 20260902181605 | 74 | 194 | 0.0 | 1.7 | 0.00 | 0.32 | 0.32 | 94 | 1018.4 |
| 20260902181027 | 73 | 194 | 0.0 | 0.9 | 0.00 | 0.32 | 0.32 | 94 | 1018.4 |
| 20260902180524 | 73 | 194 | 0.0 | 0.9 | 0.00 | 0.32 | 0.32 | 94 | 1018.2 |
| 20260902180044 | 73 | 194 | 0.0 | 0.0 | 0.01 | 0.32 | 0.32 | 93 | 1018.3 |
| 20260902175540 | 72 | 194 | 0.0 | 0.9 | 0.01 | 0.32 | 0.32 | 93 | 1018.4 |
| 20260902175039 | 72 | 194 | 0.0 | 2.6 | 0.01 | 0.32 | 0.32 | 93 | 1018.5 |
| 20260902174536 | 72 | 194 | 1.7 | 2.6 | 0.01 | 0.32 | 0.32 | 93 | 1018.4 |
| 20260902174035 | 72 | 206 | 1.7 | 3.5 | 0.01 | 0.32 | 0.32 | 93 | 1018.6 |
| 20260902173532 | 72 | 169 | 0.9 | 2.6 | 0.01 | 0.32 | 0.32 | 92 | 1018.7 |
| 20260902173033 | 72 | 228 | 0.9 | 1.7 | 0.02 | 0.32 | 0.32 | 93 | 1018.8 |
| 20260902172554 | 72 | 228 | 0.9 | 4.3 | 0.02 | 0.32 | 0.32 | 92 | 1018.9 |
| 20260902172032 | 72 | 186 | 1.7 | 5.2 | 0.03 | 0.32 | 0.32 | 92 | 1019.1 |
| 20260902171529 | 72 | 188 | 2.6 | 4.3 | 0.05 | 0.32 | 0.32 | 92 | 1019.1 |
| 20260902171054 | 72 | 160 | 0.0 | 0.9 | 0.11 | 0.32 | 0.32 | 93 | 1019.2 |
| 20260902170530 | 72 | 160 | 0.0 | 0.9 | 0.16 | 0.32 | 0.32 | 92 | 1019.3 |
| 20260902170030 | 72 | 160 | 0.0 | 2.6 | 0.24 | 0.31 | 0.31 | 92 | 1019.5 |
| 20260902165528 | 72 | 160 | 0.9 | 2.6 | 0.31 | 0.31 | 0.31 | 91 | 1019.6 |
| 20260902165031 | 72 | 108 | 0.0 | 3.5 | 0.31 | 0.31 | 0.31 | 91 | 1019.4 |
| 20260902164549 | 72 | 108 | 1.7 | 5.2 | 0.31 | 0.31 | 0.31 | 90 | 1019.5 |
| 20260902164027 | 72 | 142 | 0.9 | 5.2 | 0.31 | 0.31 | 0.31 | 89 | 1019.7 |
| 20260902163542 | 72 | 87 | 1.7 | 5.2 | 0.31 | 0.31 | 0.31 | 89 | 1019.7 |
| 20260902163042 | 73 | 86 | 3.5 | 4.3 | 0.30 | 0.30 | 0.30 | 89 | 1019.9 |
| 20260902162540 | 73 | 51 | 0.9 | 4.3 | 0.30 | 0.30 | 0.30 | 88 | 1020.6 |
| 20260902162104 | 74 | 32 | 0.0 | 4.3 | 0.29 | 0.29 | 0.29 | 86 | 1020.9 |
| 20260902161540 | 75 | 66 | 1.7 | 5.2 | 0.27 | 0.27 | 0.27 | 85 | 1021.0 |
| 20260902161105 | 76 | 355 | 2.6 | 5.2 | 0.21 | 0.21 | 0.21 | 84 | 1021.7 |
| 20260902160540 | 77 | 277 | 3.5 | 13.9 | 0.16 | 0.16 | 0.16 | 82 | 1022.3 |
| 20260902160038 | 78 | 313 | 7.0 | 15.6 | 0.06 | 0.06 | 0.06 | 80 | 1022.2 |
| 20260902155536 | 79 | 304 | 7.8 | 18.2 | 0.00 | 0.00 | 0.00 | 80 | 1021.7 |
| 20260902155035 | 80 | 43 | 8.7 | 20.0 | 0.00 | 0.00 | 0.00 | 77 | 1021.2 |
| 20260902154531 | 81 | 5 | 10.4 | 20.0 | 0.00 | 0.00 | 0.00 | 76 | 1021.1 |
| 20260902154052 | 82 | 347 | 7.0 | 13.9 | 0.00 | 0.00 | 0.00 | 74 | 1020.4 |
| 20260902153553 | 83 | 41 | 5.2 | 11.3 | 0.00 | 0.00 | 0.00 | 74 | 1019.7 |
| 20260902153032 | 83 | 40 | 4.3 | 8.7 | 0.00 | 0.00 | 0.00 | 76 | 1019.4 |
| 20260902152529 | 83 | 314 | 4.3 | 8.7 | 0.00 | 0.00 | 0.00 | 75 | 1019.1 |
| 20260902152029 | 83 | 344 | 2.6 | 7.0 | 0.00 | 0.00 | 0.00 | 76 | 1018.8 |
| 20260902151529 | 84 | 304 | 1.7 | 3.5 | 0.00 | 0.00 | 0.00 | 74 | 1018.8 |
| 20260902151054 | 84 | 355 | 0.9 | 3.5 | 0.00 | 0.00 | 0.00 | 73 | 1018.6 |
| 20260902150529 | 84 | 355 | 1.7 | 3.5 | 0.00 | 0.00 | 0.00 | 74 | 1018.6 |
| 20260902150028 | 84 | 297 | 0.9 | 3.5 | 0.00 | 0.00 | 0.00 | 74 | 1018.5 |
| 20260902145543 | 84 | 292 | 0.9 | 2.6 | 0.00 | 0.01 | 0.00 | 72 | 1018.4 |
| 20260902145043 | 84 | 292 | 0.0 | 3.5 | 0.00 | 0.01 | 0.00 | 72 | 1018.4 |
| 20260902144540 | 83 | 310 | 0.0 | 3.5 | 0.00 | 0.01 | 0.00 | 74 | 1018.4 |
| 20260902144039 | 83 | 351 | 0.9 | 3.5 | 0.00 | 0.01 | 0.00 | 75 | 1018.4 |
| 20260902143536 | 83 | 315 | 0.0 | 3.5 | 0.00 | 0.01 | 0.00 | 75 | 1018.3 |
| 20260902143036 | 83 | 325 | 1.7 | 3.5 | 0.00 | 0.01 | 0.00 | 75 | 1018.3 |
| 20260902142557 | 82 | 41 | 0.0 | 0.0 | 0.00 | 0.01 | 0.00 | 74 | 1018.4 |
| 20260902142036 | 82 | 41 | 0.0 | 0.0 | 0.00 | 0.01 | 0.00 | 74 | 1018.3 |
| 20260902141558 | 82 | 41 | 0.0 | 0.0 | 0.00 | 0.01 | 0.00 | 75 | 1018.3 |
| 20260902141036 | 81 | 41 | 0.0 | 0.0 | 0.00 | 0.01 | 0.00 | 76 | 1018.3 |
| 20260902140559 | 81 | 41 | 0.0 | 1.7 | 0.00 | 0.01 | 0.00 | 75 | 1018.3 |
| 20260902140034 | 81 | 41 | 0.0 | 2.6 | 0.00 | 0.01 | 0.00 | 76 | 1018.5 |
| 20260902135531 | 81 | 131 | 0.9 | 2.6 | 0.00 | 0.01 | 0.00 | 75 | 1018.4 |
| 20260902135054 | 80 | 131 | 0.9 | 4.3 | 0.00 | 0.01 | 0.00 | 78 | 1018.4 |
| 20260902134531 | 80 | 131 | 0.9 | 4.3 | 0.00 | 0.01 | 0.00 | 77 | 1018.3 |
| 20260902134029 | 80 | 140 | 2.6 | 4.3 | 0.00 | 0.01 | 0.00 | 77 | 1018.2 |
| 20260902133530 | 79 | 111 | 1.7 | 3.5 | 0.00 | 0.01 | 0.00 | 79 | 1018.3 |
| 20260902133030 | 79 | 49 | 0.9 | 2.6 | 0.00 | 0.01 | 0.00 | 79 | 1018.2 |
| 20260902132526 | 78 | 49 | 0.0 | 1.7 | 0.00 | 0.01 | 0.00 | 80 | 1018.3 |
| 20260902132026 | 78 | 80 | 0.9 | 2.6 | 0.00 | 0.01 | 0.00 | 80 | 1018.4 |
| 20260902131543 | 78 | 80 | 0.9 | 2.6 | 0.00 | 0.01 | 0.00 | 80 | 1018.6 |
| 20260902131042 | 77 | 334 | 0.0 | 1.7 | 0.00 | 0.01 | 0.00 | 82 | 1018.6 |
| 20260902130539 | 77 | 334 | 0.0 | 0.9 | 0.00 | 0.01 | 0.00 | 81 | 1018.6 |
| 20260902130039 | 77 | 334 | 0.0 | 0.9 | 0.00 | 0.01 | 0.00 | 83 | 1018.5 |
| 20260902125536 | 76 | 334 | 0.0 | 0.9 | 0.00 | 0.01 | 0.00 | 83 | 1018.5 |
| 20260902125036 | 76 | 334 | 0.0 | 2.6 | 0.00 | 0.01 | 0.00 | 83 | 1018.3 |
| 20260902124559 | 76 | 334 | 0.0 | 2.6 | 0.00 | 0.01 | 0.00 | 83 | 1018.3 |
| 20260902124103 | 75 | 334 | 1.7 | 2.6 | 0.00 | 0.01 | 0.00 | 84 | 1018.4 |
| 20260902123538 | 75 | 334 | 0.0 | 1.7 | 0.00 | 0.01 | 0.00 | 84 | 1018.3 |
| 20260902123102 | 75 | 334 | 0.0 | 2.6 | 0.00 | 0.01 | 0.00 | 85 | 1018.2 |
| 20260902122538 | 75 | 334 | 0.0 | 1.7 | 0.00 | 0.01 | 0.00 | 85 | 1018.1 |
| 20260902122041 | 74 | 302 | 0.0 | 2.6 | 0.00 | 0.01 | 0.00 | 86 | 1018.0 |
| 20260902121539 | 74 | 324 | 0.9 | 4.3 | 0.00 | 0.01 | 0.00 | 86 | 1018.0 |
| 20260902121038 | 74 | 13 | 0.0 | 4.3 | 0.00 | 0.01 | 0.00 | 86 | 1018.0 |
| 20260902120540 | 74 | 339 | 1.7 | 3.5 | 0.00 | 0.01 | 0.00 | 86 | 1018.1 |
| 20260902120038 | 73 | 355 | 1.7 | 3.5 | 0.00 | 0.01 | 0.00 | 87 | 1018.2 |
| 20260902115535 | 73 | 23 | 0.9 | 2.6 | 0.00 | 0.01 | 0.00 | 87 | 1018.1 |
| 20260902115034 | 73 | 11 | 0.9 | 2.6 | 0.00 | 0.01 | 0.00 | 87 | 1018.0 |
| 20260902114531 | 73 | 5 | 0.9 | 2.6 | 0.00 | 0.01 | 0.00 | 88 | 1018.0 |
| 20260902114050 | 73 | 360 | 0.0 | 0.9 | 0.00 | 0.01 | 0.00 | 88 | 1017.9 |
| 20260902113525 | 72 | 360 | 0.0 | 1.7 | 0.00 | 0.01 | 0.00 | 88 | 1017.8 |
| 20260902113025 | 72 | 360 | 0.0 | 2.6 | 0.00 | 0.01 | 0.00 | 88 | 1017.9 |
| 20260902112542 | 72 | 360 | 0.9 | 2.6 | 0.00 | 0.01 | 0.00 | 88 | 1017.8 |
| 20260902112040 | 72 | 355 | 0.9 | 2.6 | 0.00 | 0.01 | 0.00 | 88 | 1018.0 |
| 20260902111538 | 72 | 61 | 0.0 | 2.6 | 0.00 | 0.01 | 0.00 | 87 | 1017.7 |
| 20260902111102 | 72 | 61 | 0.0 | 3.5 | 0.00 | 0.01 | 0.00 | 87 | 1017.7 |
| 20260902110538 | 72 | 80 | 1.7 | 3.5 | 0.00 | 0.01 | 0.00 | 87 | 1017.5 |
| 20260902110037 | 72 | 17 | 1.7 | 2.6 | 0.00 | 0.01 | 0.00 | 87 | 1017.5 |
| 20260902105534 | 73 | 329 | 0.0 | 1.7 | 0.00 | 0.01 | 0.00 | 87 | 1017.7 |
| 20260902105033 | 73 | 329 | 0.0 | 1.7 | 0.00 | 0.01 | 0.00 | 87 | 1017.7 |
| 20260902104551 | 73 | 329 | 0.9 | 4.3 | 0.00 | 0.01 | 0.00 | 86 | 1017.8 |
| 20260902104053 | 73 | 329 | 1.7 | 4.3 | 0.00 | 0.01 | 0.00 | 86 | 1017.8 |
| 20260902103551 | 73 | 316 | 1.7 | 2.6 | 0.00 | 0.01 | 0.00 | 86 | 1017.7 |
| 20260902103033 | 73 | 165 | 0.0 | 2.6 | 0.00 | 0.01 | 0.00 | 86 | 1017.6 |
| 20260902102532 | 73 | 165 | 0.9 | 2.6 | 0.00 | 0.01 | 0.00 | 86 | 1017.6 |
| 20260902102030 | 73 | 165 | 1.7 | 3.5 | 0.00 | 0.01 | 0.00 | 86 | 1017.6 |
| 20260902101553 | 73 | 165 | 0.0 | 1.7 | 0.00 | 0.01 | 0.00 | 86 | 1017.6 |
| 20260902101051 | 73 | 165 | 0.0 | 0.0 | 0.00 | 0.01 | 0.00 | 85 | 1017.6 |
| 20260902100527 | 73 | 165 | 0.0 | 0.0 | 0.00 | 0.01 | 0.00 | 85 | 1017.6 |
| 20260902100027 | 73 | 165 | 0.0 | 0.0 | 0.00 | 0.01 | 0.00 | 85 | 1017.7 |
| 20260902095543 | 73 | 165 | 0.0 | 0.0 | 0.00 | 0.01 | 0.00 | 85 | 1017.7 |
| 20260902095042 | 73 | 165 | 0.0 | 0.0 | 0.00 | 0.01 | 0.00 | 85 | 1017.6 |
| 20260902094604 | 73 | 165 | 0.0 | 2.6 | 0.00 | 0.01 | 0.00 | 85 | 1017.5 |
| 20260902094042 | 73 | 165 | 0.9 | 4.3 | 0.00 | 0.01 | 0.00 | 85 | 1017.5 |
| 20260902093539 | 73 | 165 | 2.6 | 4.3 | 0.00 | 0.01 | 0.00 | 85 | 1017.5 |
| 20260902093038 | 73 | 165 | 1.7 | 4.3 | 0.00 | 0.01 | 0.00 | 85 | 1017.4 |
| 20260902092533 | 73 | 165 | 3.5 | 4.3 | 0.00 | 0.01 | 0.00 | 86 | 1017.4 |
| 20260902092034 | 73 | 165 | 2.6 | 5.2 | 0.00 | 0.01 | 0.00 | 86 | 1017.6 |
| 20260902091530 | 73 | 164 | 2.6 | 5.2 | 0.00 | 0.01 | 0.00 | 86 | 1017.6 |
| 20260902091055 | 73 | 150 | 2.6 | 7.0 | 0.00 | 0.01 | 0.00 | 86 | 1017.5 |
| 20260902090531 | 73 | 151 | 4.3 | 8.7 | 0.00 | 0.01 | 0.00 | 86 | 1017.5 |
| 20260902090034 | 73 | 147 | 6.1 | 8.7 | 0.00 | 0.01 | 0.00 | 86 | 1017.4 |
| 20260902085533 | 73 | 139 | 4.3 | 7.8 | 0.00 | 0.01 | 0.00 | 86 | 1017.5 |
| 20260902085052 | 73 | 123 | 4.3 | 7.8 | 0.00 | 0.01 | 0.00 | 86 | 1017.4 |
| 20260902084529 | 73 | 144 | 4.3 | 7.0 | 0.00 | 0.01 | 0.00 | 86 | 1017.3 |
| 20260902084048 | 73 | 143 | 3.5 | 6.1 | 0.00 | 0.01 | 0.00 | 86 | 1017.3 |
| 20260902083525 | 73 | 140 | 2.6 | 6.1 | 0.00 | 0.01 | 0.00 | 86 | 1017.4 |
| 20260902083050 | 73 | 153 | 2.6 | 5.2 | 0.00 | 0.01 | 0.00 | 86 | 1017.3 |
| 20260902082526 | 73 | 146 | 0.9 | 4.3 | 0.00 | 0.01 | 0.00 | 86 | 1017.4 |
| 20260902082026 | 73 | 146 | 3.5 | 4.3 | 0.00 | 0.01 | 0.00 | 85 | 1017.3 |
| 20260902081542 | 73 | 149 | 3.5 | 6.1 | 0.00 | 0.01 | 0.00 | 85 | 1017.3 |
| 20260902081040 | 73 | 146 | 3.5 | 6.1 | 0.00 | 0.01 | 0.00 | 85 | 1017.2 |
| 20260902080537 | 73 | 128 | 1.7 | 5.2 | 0.00 | 0.01 | 0.00 | 86 | 1017.2 |
| 20260902080037 | 73 | 144 | 0.9 | 3.5 | 0.00 | 0.01 | 0.00 | 85 | 1017.3 |
| 20260902075535 | 73 | 130 | 2.6 | 3.5 | 0.00 | 0.01 | 0.00 | 85 | 1017.3 |
| 20260902075035 | 74 | 130 | 0.9 | 2.6 | 0.00 | 0.01 | 0.00 | 85 | 1017.2 |
| 20260902074532 | 74 | 275 | 0.9 | 2.6 | 0.00 | 0.01 | 0.00 | 85 | 1017.2 |
| 20260902074057 | 74 | 275 | 0.0 | 0.0 | 0.00 | 0.01 | 0.00 | 85 | 1017.1 |
| 20260902073557 | 74 | 275 | 0.0 | 0.0 | 0.00 | 0.01 | 0.00 | 85 | 1017.1 |
| 20260902073101 | 74 | 275 | 0.0 | 0.0 | 0.00 | 0.01 | 0.00 | 86 | 1017.0 |
| 20260902072537 | 74 | 275 | 0.0 | 0.0 | 0.00 | 0.01 | 0.00 | 86 | 1017.1 |
| 20260902072041 | 74 | 275 | 0.0 | 0.0 | 0.00 | 0.01 | 0.00 | 85 | 1017.0 |
| 20260902071538 | 74 | 275 | 0.0 | 1.7 | 0.00 | 0.01 | 0.00 | 85 | 1017.0 |
| 20260902071103 | 74 | 275 | 0.0 | 1.7 | 0.00 | 0.01 | 0.00 | 85 | 1017.0 |
| 20260902070604 | 74 | 275 | 0.9 | 1.7 | 0.00 | 0.01 | 0.00 | 85 | 1017.0 |
| 20260902070042 | 74 | 275 | 0.0 | 0.0 | 0.00 | 0.01 | 0.00 | 84 | 1017.1 |
| 20260902065537 | 74 | 275 | 0.0 | 0.0 | 0.00 | 0.01 | 0.00 | 85 | 1017.1 |
| 20260902065037 | 74 | 275 | 0.0 | 0.0 | 0.00 | 0.01 | 0.00 | 84 | 1017.1 |
| 20260902064559 | 74 | 275 | 0.0 | 0.0 | 0.00 | 0.01 | 0.00 | 84 | 1017.0 |
| 20260902064037 | 74 | 275 | 0.0 | 0.0 | 0.00 | 0.01 | 0.00 | 83 | 1017.0 |
| 20260902063559 | 75 | 275 | 0.0 | 0.0 | 0.00 | 0.01 | 0.00 | 84 | 1016.9 |
| 20260902063037 | 75 | 275 | 0.0 | 0.0 | 0.00 | 0.01 | 0.00 | 83 | 1017.0 |
| 20260902062534 | 75 | 275 | 0.0 | 0.0 | 0.00 | 0.01 | 0.00 | 83 | 1017.1 |
| 20260902062033 | 75 | 275 | 0.0 | 0.0 | 0.00 | 0.01 | 0.00 | 83 | 1017.2 |
| 20260902061035 | 75 | 275 | 0.0 | 0.0 | 0.00 | 0.01 | 0.00 | 82 | 1017.2 |
| 20260902060532 | 75 | 275 | 0.0 | 0.0 | 0.00 | 0.01 | 0.00 | 82 | 1017.3 |
| 20260902060031 | 75 | 275 | 0.0 | 0.0 | 0.00 | 0.01 | 0.00 | 82 | 1017.3 |
| 20260902055548 | 75 | 275 | 0.0 | 0.0 | 0.00 | 0.01 | 0.00 | 81 | 1017.3 |
| 20260902055025 | 75 | 275 | 0.0 | 0.0 | 0.00 | 0.01 | 0.00 | 81 | 1017.4 |
| 20260902054525 | 76 | 275 | 0.0 | 0.9 | 0.00 | 0.01 | 0.00 | 81 | 1017.5 |
| 20260902054025 | 76 | 275 | 0.0 | 0.9 | 0.00 | 0.01 | 0.00 | 80 | 1017.6 |
| 20260902053542 | 76 | 275 | 0.0 | 0.9 | 0.00 | 0.01 | 0.00 | 80 | 1017.6 |
| 20260902053042 | 76 | 275 | 0.0 | 0.0 | 0.00 | 0.01 | 0.00 | 80 | 1017.7 |
| 20260902052539 | 76 | 275 | 0.0 | 1.7 | 0.00 | 0.01 | 0.00 | 80 | 1017.7 |
| 20260902052039 | 76 | 275 | 0.0 | 2.6 | 0.00 | 0.01 | 0.00 | 80 | 1017.7 |
| 20260902051601 | 76 | 275 | 1.7 | 2.6 | 0.00 | 0.01 | 0.00 | 79 | 1017.7 |
| 20260902051040 | 77 | 275 | 0.0 | 2.6 | 0.00 | 0.01 | 0.00 | 79 | 1017.7 |
| 20260902050536 | 77 | 324 | 0.9 | 3.5 | 0.00 | 0.01 | 0.00 | 78 | 1017.8 |
| 20260902050036 | 77 | 324 | 1.7 | 3.5 | 0.00 | 0.01 | 0.00 | 78 | 1017.9 |
| 20260902045533 | 77 | 326 | 1.7 | 3.5 | 0.00 | 0.01 | 0.00 | 77 | 1017.9 |
| 20260902045033 | 77 | 294 | 1.7 | 4.3 | 0.00 | 0.01 | 0.00 | 77 | 1017.9 |
| 20260902044530 | 78 | 313 | 2.6 | 4.3 | 0.00 | 0.01 | 0.00 | 77 | 1017.8 |
| 20260902044029 | 78 | 321 | 0.9 | 4.3 | 0.00 | 0.01 | 0.00 | 76 | 1017.8 |
| 20260902043545 | 78 | 330 | 2.6 | 6.1 | 0.00 | 0.01 | 0.00 | 75 | 1017.6 |
| 20260902043043 | 78 | 313 | 2.6 | 6.1 | 0.00 | 0.01 | 0.00 | 75 | 1017.6 |
| 20260902042524 | 78 | 5 | 0.0 | 2.6 | 0.00 | 0.01 | 0.00 | 74 | 1017.4 |
| 20260902042044 | 78 | 5 | 0.0 | 4.3 | 0.00 | 0.01 | 0.00 | 74 | 1017.4 |
| 20260902041541 | 79 | 348 | 0.9 | 4.3 | 0.00 | 0.01 | 0.00 | 74 | 1017.4 |
| 20260902041040 | 79 | 344 | 1.7 | 6.1 | 0.00 | 0.01 | 0.00 | 74 | 1017.4 |
| 20260902040537 | 79 | 347 | 2.6 | 7.8 | 0.00 | 0.01 | 0.00 | 73 | 1017.5 |
| 20260902040036 | 79 | 36 | 0.9 | 7.8 | 0.00 | 0.01 | 0.00 | 73 | 1017.4 |
| 20260902035559 | 79 | 9 | 1.7 | 10.4 | 0.00 | 0.01 | 0.01 | 73 | 1017.5 |
| 20260902035037 | 79 | 71 | 3.5 | 15.6 | 0.00 | 0.01 | 0.01 | 73 | 1017.5 |
| 20260902034535 | 79 | 36 | 4.3 | 18.2 | 0.00 | 0.01 | 0.01 | 72 | 1017.5 |
| 20260902034034 | 80 | 49 | 7.8 | 19.1 | 0.00 | 0.01 | 0.01 | 72 | 1017.5 |
| 20260902033531 | 80 | 40 | 7.8 | 20.0 | 0.00 | 0.01 | 0.01 | 71 | 1017.3 |
| 20260902033031 | 81 | 74 | 11.3 | 21.7 | 0.00 | 0.01 | 0.01 | 71 | 1017.2 |
| 20260902032552 | 81 | 344 | 8.7 | 21.7 | 0.00 | 0.01 | 0.01 | 71 | 1017.1 |
| 20260902032055 | 81 | 50 | 3.5 | 9.6 | 0.00 | 0.01 | 0.01 | 73 | 1017.0 |
| 20260902031556 | 82 | 346 | 5.2 | 9.6 | 0.00 | 0.01 | 0.01 | 73 | 1016.7 |
| 20260902031035 | 82 | 182 | 0.0 | 3.5 | 0.00 | 0.01 | 0.01 | 72 | 1016.5 |
| 20260902030532 | 82 | 182 | 0.9 | 3.5 | 0.00 | 0.01 | 0.01 | 72 | 1016.4 |
| 20260902030057 | 82 | 171 | 3.5 | 4.3 | 0.00 | 0.01 | 0.01 | 71 | 1016.2 |
| 20260902025559 | 82 | 226 | 1.7 | 2.6 | 0.00 | 0.01 | 0.01 | 71 | 1016.1 |
| 20260902025037 | 82 | 226 | 0.0 | 1.7 | 0.00 | 0.01 | 0.01 | 71 | 1016.1 |
| 20260902024539 | 82 | 207 | 0.0 | 3.5 | 0.00 | 0.01 | 0.01 | 71 | 1016.0 |
| 20260902024038 | 82 | 189 | 0.0 | 3.5 | 0.00 | 0.01 | 0.01 | 70 | 1015.9 |
| 20260902023601 | 82 | 189 | 2.6 | 2.6 | 0.00 | 0.01 | 0.01 | 70 | 1015.8 |
| 20260902023103 | 83 | 189 | 0.0 | 2.6 | 0.00 | 0.01 | 0.01 | 70 | 1015.7 |
| 20260902022539 | 83 | 211 | 0.9 | 4.3 | 0.00 | 0.01 | 0.01 | 70 | 1015.6 |
| 20260902022103 | 83 | 202 | 1.7 | 5.2 | 0.00 | 0.01 | 0.01 | 70 | 1015.4 |
| 20260902021604 | 83 | 202 | 1.7 | 6.1 | 0.00 | 0.01 | 0.01 | 69 | 1015.2 |
| 20260902021042 | 83 | 187 | 4.3 | 6.1 | 0.00 | 0.01 | 0.01 | 69 | 1015.0 |
| 20260902020538 | 83 | 208 | 1.7 | 6.1 | 0.00 | 0.01 | 0.01 | 69 | 1015.1 |
| 20260902020037 | 84 | 183 | 2.6 | 4.3 | 0.00 | 0.01 | 0.01 | 69 | 1015.2 |
| 20260902015534 | 84 | 178 | 3.5 | 6.1 | 0.00 | 0.01 | 0.01 | 68 | 1015.2 |
| 20260902015033 | 84 | 196 | 3.5 | 7.0 | 0.00 | 0.01 | 0.01 | 68 | 1015.4 |
| 20260902014551 | 84 | 215 | 3.5 | 7.0 | 0.00 | 0.01 | 0.01 | 68 | 1015.4 |
| 20260902014049 | 84 | 205 | 3.5 | 7.0 | 0.00 | 0.01 | 0.01 | 68 | 1015.3 |
| 20260902013525 | 84 | 187 | 4.3 | 7.0 | 0.00 | 0.01 | 0.01 | 68 | 1015.4 |
| 20260902013044 | 84 | 217 | 1.7 | 3.5 | 0.00 | 0.01 | 0.01 | 68 | 1015.4 |
| 20260902012541 | 84 | 211 | 0.0 | 1.7 | 0.00 | 0.01 | 0.01 | 69 | 1015.5 |
| 20260902012041 | 84 | 211 | 0.0 | 2.6 | 0.00 | 0.01 | 0.01 | 68 | 1015.5 |
| 20260902011537 | 85 | 211 | 0.9 | 2.6 | 0.00 | 0.01 | 0.01 | 68 | 1015.5 |
| 20260902011036 | 85 | 183 | 1.7 | 2.6 | 0.00 | 0.01 | 0.01 | 68 | 1015.5 |
| 20260902010537 | 85 | 183 | 0.9 | 2.6 | 0.00 | 0.01 | 0.01 | 69 | 1015.5 |
| 20260902010101 | 85 | 183 | 0.0 | 2.6 | 0.00 | 0.01 | 0.01 | 68 | 1015.4 |
| 20260902005535 | 85 | 183 | 0.0 | 0.9 | 0.00 | 0.01 | 0.01 | 68 | 1015.4 |
| 20260902005033 | 85 | 183 | 0.0 | 3.5 | 0.00 | 0.01 | 0.01 | 67 | 1015.2 |
| 20260902004531 | 85 | 183 | 0.9 | 3.5 | 0.00 | 0.01 | 0.01 | 67 | 1014.9 |
| 20260902004028 | 85 | 232 | 0.9 | 4.3 | 0.00 | 0.01 | 0.01 | 67 | 1014.6 |
| 20260902003531 | 85 | 262 | 1.7 | 7.0 | 0.00 | 0.01 | 0.01 | 67 | 1014.4 |
| 20260902003030 | 85 | 255 | 2.6 | 7.8 | 0.00 | 0.01 | 0.01 | 67 | 1014.2 |
| 20260902002548 | 86 | 260 | 2.6 | 7.8 | 0.00 | 0.01 | 0.01 | 66 | 1014.2 |
| 20260902002026 | 86 | 242 | 2.6 | 7.8 | 0.00 | 0.01 | 0.01 | 65 | 1014.2 |
| 20260902001543 | 86 | 294 | 1.7 | 7.8 | 0.00 | 0.01 | 0.01 | 65 | 1014.2 |
| 20260902001043 | 86 | 235 | 3.5 | 7.8 | 0.00 | 0.01 | 0.01 | 65 | 1014.1 |
| 20260902000537 | 86 | 240 | 2.6 | 7.8 | 0.00 | 0.01 | 0.01 | 65 | 1014.0 |
| 20260902000036 | 87 | 215 | 1.7 | 7.8 | 0.00 | 0.01 | 0.01 | 64 | 1014.0 |
| 20260901235533 | 87 | 259 | 3.5 | 7.8 | 0.00 | 0.01 | 0.01 | 64 | 1014.0 |
| 20260901235033 | 87 | 246 | 2.6 | 6.1 | 0.00 | 0.01 | 0.01 | 63 | 1013.9 |
| 20260901234529 | 88 | 233 | 3.5 | 8.7 | 0.00 | 0.01 | 0.01 | 63 | 1013.8 |
| 20260901234032 | 88 | 256 | 3.5 | 12.2 | 0.00 | 0.01 | 0.01 | 63 | 1013.8 |
| 20260901233553 | 88 | 269 | 3.5 | 12.2 | 0.00 | 0.01 | 0.01 | 62 | 1013.7 |
| 20260901233031 | 88 | 259 | 1.7 | 9.6 | 0.00 | 0.01 | 0.01 | 63 | 1013.7 |
| 20260901232527 | 89 | 225 | 2.6 | 6.1 | 0.00 | 0.01 | 0.01 | 62 | 1013.8 |
| 20260901232026 | 89 | 236 | 0.9 | 6.1 | 0.00 | 0.01 | 0.01 | 62 | 1013.8 |
| 20260901231543 | 90 | 232 | 0.9 | 7.0 | 0.00 | 0.01 | 0.01 | 61 | 1013.7 |
| 20260901231042 | 90 | 252 | 2.6 | 7.0 | 0.00 | 0.01 | 0.01 | 60 | 1013.7 |
| 20260901230605 | 90 | 257 | 3.5 | 6.1 | 0.00 | 0.01 | 0.01 | 60 | 1013.7 |
| 20260901230043 | 90 | 242 | 2.6 | 7.0 | 0.00 | 0.01 | 0.01 | 59 | 1013.8 |
| 20260901225541 | 91 | 242 | 3.5 | 7.0 | 0.00 | 0.01 | 0.01 | 59 | 1013.8 |
| 20260901225040 | 91 | 242 | 0.9 | 5.2 | 0.00 | 0.01 | 0.01 | 59 | 1013.8 |
| 20260901224537 | 91 | 254 | 2.6 | 6.1 | 0.00 | 0.01 | 0.01 | 58 | 1013.8 |
| 20260901224037 | 92 | 240 | 0.9 | 5.2 | 0.00 | 0.01 | 0.01 | 58 | 1013.8 |
| 20260901223534 | 92 | 245 | 0.9 | 5.2 | 0.00 | 0.01 | 0.01 | 57 | 1013.9 |
| 20260901223031 | 92 | 234 | 0.9 | 5.2 | 0.00 | 0.01 | 0.01 | 57 | 1013.9 |
| 20260901222529 | 92 | 238 | 0.9 | 6.1 | 0.00 | 0.01 | 0.01 | 57 | 1013.8 |
| 20260901222029 | 93 | 242 | 1.7 | 8.7 | 0.00 | 0.01 | 0.01 | 57 | 1013.7 |
| 20260901221531 | 93 | 249 | 3.5 | 8.7 | 0.00 | 0.01 | 0.01 | 57 | 1013.7 |
| 20260901221055 | 93 | 229 | 1.7 | 7.0 | 0.00 | 0.01 | 0.01 | 57 | 1013.8 |
| 20260901220531 | 93 | 242 | 1.7 | 7.0 | 0.00 | 0.01 | 0.01 | 57 | 1013.8 |
| 20260901220053 | 93 | 255 | 1.7 | 7.8 | 0.00 | 0.01 | 0.01 | 57 | 1013.8 |
| 20260901215529 | 93 | 250 | 2.6 | 7.8 | 0.00 | 0.01 | 0.01 | 57 | 1013.8 |
| 20260901215028 | 93 | 242 | 3.5 | 7.8 | 0.00 | 0.01 | 0.01 | 57 | 1013.9 |
| 20260901214524 | 93 | 217 | 3.5 | 8.7 | 0.00 | 0.01 | 0.01 | 57 | 1013.8 |
| 20260901214044 | 93 | 254 | 3.5 | 8.7 | 0.00 | 0.01 | 0.01 | 56 | 1013.8 |
| 20260901213540 | 94 | 213 | 3.5 | 8.7 | 0.00 | 0.01 | 0.01 | 55 | 1013.8 |
| 20260901213040 | 94 | 246 | 3.5 | 10.4 | 0.00 | 0.01 | 0.01 | 54 | 1013.8 |
| 20260901212602 | 95 | 274 | 4.3 | 10.4 | 0.00 | 0.01 | 0.01 | 54 | 1013.8 |
| 20260901212105 | 95 | 250 | 2.6 | 8.7 | 0.00 | 0.01 | 0.01 | 53 | 1013.9 |
| 20260901211540 | 96 | 244 | 5.2 | 12.2 | 0.00 | 0.01 | 0.01 | 52 | 1014.0 |
| 20260901211039 | 96 | 317 | 5.2 | 12.2 | 0.00 | 0.01 | 0.01 | 52 | 1013.9 |
| 20260901210535 | 96 | 265 | 5.2 | 8.7 | 0.00 | 0.01 | 0.01 | 51 | 1013.9 |
| 20260901210034 | 96 | 261 | 2.6 | 8.7 | 0.00 | 0.01 | 0.01 | 52 | 1013.9 |
| 20260901205558 | 97 | 246 | 4.3 | 8.7 | 0.00 | 0.01 | 0.01 | 51 | 1013.8 |
| 20260901205036 | 98 | 224 | 4.3 | 9.6 | 0.00 | 0.01 | 0.01 | 49 | 1013.8 |
| 20260901204534 | 98 | 281 | 5.2 | 13.0 | 0.00 | 0.01 | 0.01 | 49 | 1013.9 |
| 20260901204033 | 98 | 284 | 3.5 | 13.0 | 0.00 | 0.01 | 0.01 | 49 | 1014.0 |
| 20260901203534 | 98 | 254 | 6.1 | 13.0 | 0.00 | 0.01 | 0.01 | 48 | 1013.9 |
| 20260901203034 | 98 | 258 | 3.5 | 9.6 | 0.00 | 0.01 | 0.01 | 50 | 1013.9 |
| 20260901202531 | 98 | 294 | 5.2 | 9.6 | 0.00 | 0.01 | 0.01 | 49 | 1014.0 |
| 20260901202031 | 98 | 294 | 4.3 | 12.2 | 0.00 | 0.01 | 0.01 | 49 | 1014.0 |
| 20260901201529 | 98 | 240 | 5.2 | 13.0 | 0.00 | 0.01 | 0.01 | 48 | 1014.0 |
| 20260901201028 | 98 | 277 | 7.8 | 13.0 | 0.00 | 0.01 | 0.01 | 48 | 1014.1 |
| 20260901200547 | 98 | 269 | 6.1 | 11.3 | 0.00 | 0.01 | 0.01 | 48 | 1014.1 |
| 20260901200026 | 98 | 245 | 6.1 | 11.3 | 0.00 | 0.01 | 0.01 | 49 | 1014.0 |
| 20260901195542 | 97 | 249 | 4.3 | 14.8 | 0.00 | 0.01 | 0.01 | 51 | 1014.0 |
| 20260901195043 | 97 | 261 | 6.1 | 14.8 | 0.00 | 0.01 | 0.01 | 51 | 1014.1 |
| 20260901194540 | 97 | 213 | 7.8 | 12.2 | 0.00 | 0.01 | 0.01 | 50 | 1014.1 |
| 20260901194040 | 97 | 241 | 6.1 | 15.6 | 0.00 | 0.01 | 0.01 | 49 | 1014.2 |
| 20260901193536 | 97 | 269 | 9.6 | 15.6 | 0.00 | 0.01 | 0.01 | 49 | 1014.2 |
| 20260901193035 | 97 | 277 | 7.8 | 13.0 | 0.00 | 0.01 | 0.01 | 51 | 1014.3 |
| 20260901192532 | 96 | 227 | 7.0 | 13.0 | 0.00 | 0.01 | 0.01 | 51 | 1014.3 |
| 20260901192035 | 96 | 294 | 5.2 | 13.9 | 0.00 | 0.01 | 0.01 | 51 | 1014.3 |
| 20260901191532 | 96 | 216 | 6.1 | 13.9 | 0.00 | 0.01 | 0.01 | 53 | 1014.5 |
| 20260901191030 | 96 | 261 | 8.7 | 13.9 | 0.00 | 0.01 | 0.01 | 53 | 1014.5 |
| 20260901190528 | 96 | 340 | 5.2 | 13.0 | 0.00 | 0.01 | 0.01 | 54 | 1014.4 |